Location: Newark
(46.1292°N, 1.0086°W)
Time: 14:46:24
(UTC+00:00)

Vanguard 3 - Pass Details

Date: 18 November 2019
Orbit: 508 x 3263 km, 33.3° (Epoch: 06 December)

Event Time Altitude Azimuth Distance (km) Brightness Sun altitude
Rises 11:21:35 0° 192° (SSW) 6,603 13.0 24.4°
Reaches altitude 10° 11:27:31 10° 178° (S) 5,905 13.5 24.5°
Maximum altitude 11:39:48 21° 138° (SE) 5,269 12.3 24.6°
Drops below altitude 10° 11:52:05 10° 98° (E) 5,981 11.7 24.6°
Sets 11:58:01 0° 85° (E) 6,717 11.8 24.6°
